QPF
0.00 0.00 0.00 0.00 0.02 0.12 0.10 0.13 0.17 0.11 0.02 0.00 0.00 0.00 0.00 0.00 0.00 0.00 0.00 0.01 0.00 0.01 0.01 0.03 0.04 0.04 0.03 0.05 0.03 0.00 0.00 0.00 0.00 0.00 0.00 0.00 0.00 0.00 0.00 0.00 0.00 0.04 0.21
0.00 0.00 0.00 0.02 0.09 0.14 0.05 0.02 0.01 0.00 0.00 0.00 0.00 0.00 0.00 0.00 0.00 0.01 0.00 0.00 0.01 0.01 0.02 0.05 0.06 0.03 0.05 0.06 0.08 0.08 0.07 0.09 0.08 0.04 0.00 0.00 0.00 0.00 0.00 0.00 0.00 0.06 0.08
0.00 0.00 0.00 0.03 0.04 0.01 0.00 0.00 0.00 0.00 0.00 0.00 0.00 0.00 0.00 0.00 0.00 0.01 0.01 0.00 0.00 0.00 0.01 0.01 0.01 0.01 0.01 0.02 0.03 0.04 0.06 0.08 0.13 0.06 0.02 0.00 0.00 0.00 0.01 0.01 0.03 0.06 0.07
0.00 0.00 0.00 0.00 0.00 0.00 0.00 0.00 0.00 0.00 0.00 0.00 0.00 0.00 0.00 0.00 0.00 0.00 0.00 0.00 0.00 0.00 0.00 0.00 0.00 0.00 0.00 0.00 0.00 0.01 0.02 0.02 0.05 0.06 0.07 0.05 0.03 0.02 0.01 0.01 0.02 0.04 0.05
0.00 0.00 0.00 0.00 0.00 0.00 0.00 0.00 0.00 0.00 0.00 0.00 0.00 0.00 0.00 0.00 0.00 0.00 0.00 0.00 0.00 0.00 0.00 0.00 0.00 0.00 0.00 0.00 0.00 0.00 0.00 0.01 0.02 0.03 0.02 0.01 0.01 0.03 0.03 0.02 0.02 0.01 0.01
0.00 0.00 0.00 0.00 0.00 0.00 0.00 0.00 0.00 0.00 0.00 0.00 0.00 0.00 0.00 0.00 0.00 0.00 0.00 0.00 0.00 0.00 0.00 0.00 0.00 0.00 0.00 0.00 0.00 0.00 0.00 0.00 0.00 0.00 0.00 0.00 0.01 0.03 0.04 0.03 0.01 0.00 0.00
0.00 0.00 0.00 0.00 0.00 0.00 0.00 0.00 0.00 0.00 0.00 0.00 0.00 0.00 0.00 0.00 0.00 0.00 0.00 0.00 0.00 0.00 0.00 0.00 0.00 0.00 0.00 0.00 0.00 0.00 0.00 0.00 0.00 0.00 0.00 0.00 0.00 0.00 0.00 0.01 0.00 0.00 0.00
0.00 0.00 0.00 0.00 0.00 0.00 0.00 0.00 0.00 0.00 0.00 0.00 0.00 0.00 0.00 0.00 0.00 0.00 0.00 0.00 0.00 0.00 0.00 0.00 0.00 0.00 0.00 0.00 0.00 0.00 0.00 0.00 0.00 0.00 0.00 0.00 0.00 0.00 0.01 0.02 0.00 0.00 0.00
0.00 0.00 0.00 0.00 0.00 0.00 0.00 0.00 0.00 0.00 0.00 0.00 0.00 0.00 0.00 0.00 0.00 0.00 0.00 0.00 0.00 0.00 0.00 0.00 0.00 0.00 0.00 0.00 0.00 0.00 0.00 0.00 0.00 0.00 0.00 0.00 0.00 0.00 0.00 0.00 0.02 0.02 0.03
0.00 0.00 0.00 0.00 0.00 0.00 0.00 0.00 0.00 0.00 0.00 0.00 0.00 0.00 0.00 0.00 0.00 0.00 0.00 0.00 0.00 0.00 0.00 0.00 0.00 0.00 0.00 0.00 0.00 0.00 0.00 0.01 0.01 0.01 0.01 0.02 0.03 0.03 0.02 0.04 0.06 0.04 0.05
0.00 0.00 0.00 0.00 0.00 0.00 0.00 0.00 0.00 0.00 0.00 0.00 0.00 0.00 0.00 0.00 0.00 0.00 0.00 0.00 0.00 0.00 0.00 0.00 0.00 0.00 0.00 0.00 0.00 0.00 0.00 0.00 0.00 0.00 0.00 0.00 0.00 0.00 0.01 0.01 0.01 0.01 0.01
0.00 0.00 0.00 0.00 0.00 0.00 0.00 0.00 0.00 0.00 0.00 0.00 0.00 0.00 0.00 0.00 0.00 0.00 0.00 0.00 0.00 0.00 0.00 0.00 0.00 0.00 0.00 0.00 0.00 0.00 0.00 0.00 0.00 0.00 0.00 0.00 0.00 0.00 0.00 0.00 0.00 0.00 0.00
0.00 0.00 0.00 0.00 0.00 0.00 0.00 0.00 0.00 0.00 0.00 0.00 0.00 0.00 0.00 0.00 0.00 0.00 0.00 0.00 0.00 0.00 0.00 0.00 0.00 0.00 0.00 0.00 0.00 0.00 0.00 0.00 0.00 0.00 0.00 0.00 0.00 0.00 0.00 0.00 0.00 0.00 0.00
0.00 0.00 0.00 0.00 0.00 0.00 0.00 0.00 0.00 0.00 0.00 0.00 0.00 0.00 0.00 0.00 0.00 0.00 0.00 0.00 0.00 0.00 0.00 0.00 0.00 0.00 0.00 0.00 0.00 0.00 0.00 0.00 0.00 0.00 0.00 0.00 0.00 0.00 0.00 0.00 0.00 0.00 0.00
0.00 0.00 0.00 0.00 0.00 0.00 0.00 0.00 0.00 0.00 0.00 0.00 0.00 0.00 0.00 0.00 0.00 0.00 0.00 0.00 0.00 0.00 0.00 0.00 0.00 0.00 0.00 0.00 0.00 0.00 0.00 0.00 0.00 0.00 0.00 0.00 0.00 0.00 0.00 0.00 0.00 0.00 0.00
0.00 0.00 0.00 0.00 0.00 0.00 0.00 0.00 0.00 0.00 0.00 0.00 0.00 0.00 0.00 0.00 0.00 0.00 0.00 0.00 0.00 0.00 0.00 0.00 0.00 0.00 0.00 0.00 0.00 0.00 0.00 0.00 0.00 0.00 0.00 0.00 0.00 0.00 0.00 0.00 0.00 0.00 0.00
0.00 0.00 0.00 0.00 0.00 0.00 0.00 0.00 0.00 0.00 0.00 0.00 0.00 0.00 0.00 0.00 0.00 0.00 0.00 0.00 0.00 0.00 0.00 0.00 0.00 0.00 0.00 0.00 0.00 0.00 0.00 0.00 0.00 0.00 0.00 0.00 0.00 0.00 0.00 0.00 0.00 0.00 0.00
0.00 0.00 0.00 0.00 0.00 0.00 0.00 0.00 0.00 0.00 0.00 0.00 0.00 0.00 0.00 0.00 0.00 0.00 0.00 0.00 0.00 0.00 0.00 0.00 0.00 0.00 0.00 0.00 0.00 0.00 0.00 0.00 0.00 0.00 0.00 0.00 0.00 0.00 0.00 0.00 0.00 0.00 0.00
0.00 0.00 0.00 0.00 0.00 0.00 0.00 0.00 0.00 0.00 0.00 0.00 0.00 0.00 0.00 0.00 0.00 0.00 0.00 0.00 0.00 0.00 0.00 0.00 0.00 0.00 0.00 0.00 0.00 0.00 0.00 0.00 0.00 0.00 0.00 0.00 0.00 0.00 0.00 0.00 0.00 0.00 0.00
0.00 0.00 0.00 0.00 0.00 0.00 0.00 0.00 0.00 0.00 0.00 0.00 0.00 0.00 0.00 0.00 0.00 0.00 0.00 0.00 0.00 0.00 0.00 0.00 0.00 0.00 0.00 0.00 0.00 0.00 0.00 0.00 0.00 0.00 0.00 0.00 0.00 0.00 0.00 0.00 0.00 0.00 0.00
0.00 0.00 0.00 0.00 0.00 0.00 0.00 0.00 0.00 0.00 0.00 0.00 0.00 0.00 0.00 0.00 0.00 0.00 0.00 0.00 0.00 0.00 0.00 0.00 0.00 0.00 0.00 0.00 0.00 0.00 0.00 0.00 0.00 0.00 0.00 0.00 0.00 0.00 0.00 0.00 0.00 0.00 0.00
0.00 0.00 0.00 0.00 0.00 0.00 0.00 0.00 0.00 0.00 0.00 0.00 0.00 0.00 0.00 0.00 0.00 0.00 0.00 0.00 0.00 0.00 0.00 0.00 0.00 0.00 0.00 0.00 0.00 0.00 0.00 0.00 0.00 0.00 0.00 0.00 0.00 0.00 0.00 0.00 0.00 0.00 0.00
0.00 0.00 0.00 0.00 0.00 0.00 0.00 0.00 0.00 0.00 0.00 0.00 0.00 0.00 0.00 0.00 0.00 0.00 0.00 0.00 0.00 0.00 0.00 0.00 0.00 0.00 0.00 0.00 0.00 0.00 0.00 0.00 0.00 0.00 0.00 0.00 0.00 0.00 0.00 0.00 0.00 0.00 0.00
0.00 0.00 0.00 0.00 0.00 0.00 0.00 0.00 0.00 0.00 0.00 0.00 0.00 0.00 0.00 0.00 0.00 0.00 0.00 0.00 0.00 0.00 0.00 0.00 0.00 0.00 0.00 0.00 0.00 0.00 0.00 0.00 0.00 0.00 0.00 0.00 0.00 0.00 0.00 0.00 0.00 0.00 0.00
0.00 0.00 0.00 0.00 0.00 0.00 0.00 0.00 0.00 0.00 0.00 0.00 0.00 0.00 0.00 0.00 0.00 0.00 0.00 0.00 0.00 0.00 0.00 0.00 0.00 0.00 0.00 0.00 0.00 0.00 0.00 0.00 0.00 0.00 0.00 0.00 0.00 0.00 0.00 0.00 0.00 0.00 0.00
0.00 0.00 0.00 0.00 0.00 0.00 0.00 0.00 0.00 0.00 0.00 0.00 0.00 0.00 0.00 0.00 0.00 0.00 0.00 0.00 0.00 0.00 0.00 0.00 0.00 0.00 0.00 0.00 0.00 0.00 0.00 0.00 0.00 0.00 0.00 0.00 0.00 0.00 0.00 0.00 0.00 0.00 0.00
MSLP
1011.01 1011.41 1011.85 1012.22 1012.53 1013.33 1014.10 1014.58 1015.04 1015.07 1015.19 1015.29 1015.25 1015.31 1015.37 1015.43 1015.42 1015.28 1015.16 1015.17 1015.16 1015.08 1015.09 1015.19 1015.30 1015.28 1015.15 1015.07 1014.79 1014.41 1014.19 1014.08 1014.22 1013.67 1013.51 1013.21 1012.88 1012.62 1012.58 1012.59 1012.62 1013.14 1013.65
1010.35 1010.97 1011.58 1012.95 1013.79 1014.39 1014.84 1015.32 1015.66 1015.88 1016.05 1016.12 1016.05 1016.12 1016.09 1016.06 1015.92 1015.83 1015.86 1015.98 1015.89 1015.93 1015.97 1016.06 1016.22 1015.98 1015.80 1015.67 1015.41 1015.11 1014.96 1014.65 1014.76 1014.46 1013.90 1013.29 1013.05 1012.84 1012.93 1013.05 1012.86 1013.20 1013.73
1010.86 1011.68 1012.55 1013.74 1014.58 1015.41 1015.91 1016.13 1016.20 1016.34 1016.48 1016.51 1016.51 1016.64 1016.75 1016.69 1016.62 1016.56 1016.52 1016.49 1016.59 1016.75 1017.05 1016.93 1016.96 1016.84 1016.59 1016.30 1015.94 1015.64 1015.34 1014.99 1014.66 1014.56 1014.19 1013.82 1013.79 1013.54 1013.28 1013.50 1013.76 1014.27 1014.38
1011.89 1012.96 1013.67 1014.52 1015.38 1016.29 1016.77 1016.79 1016.86 1017.03 1017.20 1017.24 1017.26 1017.31 1017.37 1017.27 1017.24 1017.13 1017.14 1017.15 1017.20 1017.16 1017.49 1017.61 1017.65 1017.60 1017.39 1017.00 1016.66 1016.36 1016.02 1015.51 1015.23 1014.99 1014.75 1014.54 1014.58 1014.43 1014.60 1015.00 1014.90 1015.14 1015.24
1012.85 1013.82 1014.62 1015.47 1016.40 1017.01 1017.37 1017.50 1017.61 1017.63 1017.60 1017.71 1017.86 1017.92 1017.88 1018.01 1018.23 1017.78 1017.86 1017.95 1017.90 1017.81 1017.68 1017.76 1018.05 1018.10 1017.98 1017.75 1017.28 1017.07 1016.56 1016.28 1016.19 1015.99 1015.91 1015.96 1016.07 1016.13 1016.21 1016.38 1015.96 1015.90 1015.72
1013.75 1014.76 1015.62 1016.55 1017.13 1017.40 1017.61 1017.86 1017.97 1017.98 1018.11 1018.20 1018.36 1018.50 1018.53 1018.73 1018.64 1018.52 1018.38 1018.39 1018.36 1018.43 1018.40 1018.27 1018.21 1018.50 1018.23 1017.95 1017.76 1017.44 1017.33 1017.16 1016.81 1016.71 1016.76 1016.74 1016.73 1016.75 1016.67 1016.53 1016.51 1016.28 1016.22
1014.80 1015.71 1016.63 1016.94 1017.07 1017.41 1017.73 1018.03 1018.34 1018.45 1018.60 1018.80 1019.01 1019.16 1019.34 1019.46 1019.27 1019.02 1018.85 1018.98 1019.08 1019.12 1019.08 1019.06 1018.94 1019.06 1018.83 1018.33 1017.80 1017.58 1017.62 1017.53 1017.31 1017.14 1017.01 1016.95 1016.89 1017.05 1016.95 1016.59 1016.59 1016.36 1016.09
1015.39 1016.01 1016.57 1016.88 1017.28 1017.62 1017.87 1018.13 1018.39 1018.56 1018.89 1019.16 1019.41 1019.61 1019.78 1020.14 1019.91 1019.54 1019.18 1019.16 1019.48 1019.78 1019.70 1019.75 1019.65 1019.54 1019.28 1018.81 1018.32 1017.93 1017.70 1017.87 1017.75 1017.57 1017.60 1017.68 1017.57 1017.31 1016.99 1016.71 1016.47 1016.20 1015.80
1015.54 1016.05 1016.59 1016.99 1017.30 1017.59 1017.92 1018.24 1018.54 1018.77 1019.02 1019.43 1019.78 1019.90 1020.13 1020.35 1019.96 1019.43 1019.21 1019.17 1019.43 1019.94 1020.09 1020.06 1020.02 1019.80 1019.54 1019.07 1018.75 1018.46 1018.04 1017.88 1017.83 1017.73 1017.64 1017.53 1017.47 1017.50 1017.31 1016.95 1016.69 1016.48 1016.05
1015.51 1016.04 1016.52 1017.03 1017.38 1017.77 1018.12 1018.43 1018.67 1018.97 1019.42 1019.96 1020.25 1020.45 1020.57 1020.52 1020.20 1019.81 1019.52 1019.38 1019.45 1019.91 1020.22 1020.35 1020.21 1019.99 1019.74 1019.35 1019.04 1018.85 1018.54 1018.16 1017.95 1017.67 1017.51 1017.09 1016.99 1017.33 1017.09 1016.93 1016.85 1016.61 1016.32
1015.51 1016.10 1016.63 1017.12 1017.53 1017.95 1018.32 1018.67 1019.10 1019.54 1019.98 1020.37 1020.69 1020.88 1020.98 1020.96 1020.93 1020.65 1020.35 1020.04 1019.97 1020.09 1020.42 1020.43 1020.32 1020.08 1019.89 1019.65 1019.28 1018.89 1018.60 1018.13 1017.77 1017.53 1017.36 1017.23 1016.97 1016.88 1016.87 1016.79 1016.61 1016.54 1016.34
1015.59 1016.21 1016.81 1017.30 1017.70 1018.28 1018.64 1019.00 1019.32 1019.56 1019.95 1020.40 1020.78 1021.06 1021.32 1021.38 1021.20 1021.23 1020.96 1020.89 1020.70 1020.54 1020.44 1020.36 1020.22 1020.16 1019.95 1019.69 1019.34 1018.98 1018.72 1018.25 1017.78 1017.55 1017.28 1017.13 1016.93 1016.69 1016.55 1016.44 1016.42 1016.34 1016.16
1015.70 1016.35 1016.85 1017.28 1017.84 1018.35 1018.76 1019.12 1019.32 1019.39 1019.65 1019.91 1020.18 1020.53 1021.02 1021.34 1021.49 1021.22 1021.30 1021.21 1020.78 1020.68 1020.68 1020.54 1020.33 1020.01 1019.75 1019.52 1019.30 1018.99 1018.82 1018.55 1018.40 1018.25 1017.99 1017.99 1017.50 1017.25 1016.61 1016.49 1016.09 1016.28 1016.18
1015.61 1016.23 1016.81 1017.36 1017.96 1018.35 1018.64 1018.76 1018.77 1019.14 1019.38 1019.53 1019.81 1020.28 1020.76 1021.26 1021.79 1021.79 1021.58 1021.35 1021.03 1021.15 1020.99 1020.55 1020.13 1019.80 1019.51 1019.45 1019.27 1019.17 1019.05 1018.92 1018.91 1018.91 1018.52 1017.98 1017.47 1017.11 1016.87 1016.65 1016.47 1016.34 1016.12
1015.31 1016.06 1016.68 1017.23 1017.70 1018.20 1018.98 1019.08 1019.33 1020.22 1020.16 1020.00 1020.50 1020.52 1021.01 1021.85 1022.54 1022.70 1022.56 1022.39 1022.41 1022.29 1021.56 1020.66 1019.96 1019.86 1019.76 1019.71 1019.68 1019.64 1019.52 1019.48 1019.54 1019.34 1019.00 1018.52 1018.02 1017.61 1017.31 1016.88 1016.56 1016.46 1016.29
1014.77 1015.43 1015.88 1016.68 1017.26 1017.88 1018.68 1019.40 1019.92 1020.37 1020.61 1020.87 1021.21 1021.28 1021.72 1021.88 1022.33 1022.28 1022.18 1022.23 1022.28 1022.41 1021.78 1021.03 1020.41 1020.28 1020.23 1020.19 1020.21 1020.19 1020.08 1019.98 1019.87 1019.72 1019.54 1019.08 1018.68 1018.28 1017.92 1017.37 1017.02 1016.89 1016.88
1013.73 1014.48 1015.22 1015.82 1016.58 1017.43 1018.32 1019.14 1019.88 1020.54 1020.83 1021.46 1021.67 1021.69 1021.58 1022.30 1022.20 1022.18 1022.26 1022.51 1022.08 1022.27 1021.72 1020.82 1020.61 1020.57 1020.56 1020.63 1020.71 1020.64 1020.56 1020.35 1020.20 1020.12 1019.86 1019.47 1019.14 1018.64 1018.29 1018.22 1018.08 1017.97 1017.70
1013.08 1013.74 1014.43 1014.82 1015.42 1016.44 1017.34 1018.15 1018.90 1019.72 1020.33 1021.09 1021.62 1021.88 1021.98 1022.05 1022.02 1022.09 1022.26 1022.14 1021.55 1021.65 1021.21 1020.68 1020.73 1020.74 1020.75 1020.82 1020.91 1020.84 1020.76 1020.53 1020.34 1020.27 1020.12 1019.96 1019.47 1019.15 1018.98 1018.78 1018.71 1018.49 1018.09
1012.32 1013.02 1013.44 1013.74 1014.38 1015.42 1016.10 1016.69 1017.12 1017.71 1018.59 1019.69 1020.50 1021.19 1021.64 1021.86 1022.16 1022.16 1022.32 1021.96 1021.02 1020.45 1020.38 1020.53 1020.57 1020.62 1020.73 1020.82 1021.04 1021.06 1020.90 1020.60 1020.48 1020.34 1020.28 1020.20 1020.07 1019.72 1019.50 1019.38 1019.06 1018.76 1018.30
1011.46 1012.26 1012.59 1013.15 1013.87 1014.67 1015.20 1015.67 1016.15 1016.46 1017.01 1018.17 1019.06 1019.62 1020.24 1021.16 1021.61 1021.47 1021.18 1020.94 1020.11 1019.89 1020.00 1020.16 1020.34 1020.52 1020.64 1020.79 1020.91 1020.93 1020.77 1020.62 1020.55 1020.46 1020.45 1020.36 1020.30 1020.24 1020.04 1019.73 1019.29 1018.76 1018.31
1010.96 1011.90 1012.29 1012.69 1013.38 1014.03 1014.72 1015.00 1015.08 1015.70 1016.19 1016.62 1017.10 1017.47 1018.66 1019.35 1019.41 1019.52 1019.52 1019.59 1019.41 1019.51 1019.71 1020.11 1020.32 1020.43 1020.50 1020.68 1020.90 1020.86 1020.74 1020.70 1020.81 1020.86 1020.81 1020.64 1020.41 1020.30 1020.13 1019.66 1019.29 1018.77 1018.28
1010.50 1011.40 1012.11 1012.33 1012.77 1013.69 1014.07 1014.54 1014.96 1015.08 1015.49 1015.88 1016.69 1017.64 1017.98 1018.22 1018.35 1018.50 1018.64 1018.94 1019.00 1019.16 1019.30 1019.69 1019.92 1020.05 1020.41 1020.67 1020.70 1020.72 1020.92 1021.28 1021.49 1021.54 1021.29 1020.86 1020.59 1020.33 1020.05 1019.74 1019.31 1018.75 1018.30
1010.05 1010.99 1011.69 1011.93 1012.16 1012.90 1013.29 1013.90 1014.04 1014.69 1014.83 1015.30 1016.12 1017.07 1017.43 1017.61 1017.71 1017.73 1017.85 1018.40 1018.80 1018.91 1019.03 1019.35 1019.51 1019.68 1020.17 1020.50 1020.71 1021.22 1021.62 1022.03 1022.04 1021.75 1021.60 1021.42 1020.94 1020.37 1020.07 1019.69 1019.21 1018.74 1018.24
1009.98 1010.77 1011.74 1012.51 1012.81 1013.29 1013.69 1013.51 1013.34 1013.85 1014.24 1014.78 1015.16 1015.89 1016.51 1016.48 1016.65 1016.98 1017.37 1017.76 1018.26 1018.47 1018.74 1019.14 1019.29 1019.66 1019.97 1020.37 1020.71 1021.43 1021.86 1022.10 1022.10 1021.91 1021.93 1021.43 1020.95 1020.49 1019.89 1019.47 1018.99 1018.59 1017.94
1009.04 1009.87 1010.67 1011.80 1012.56 1013.07 1013.40 1013.54 1013.66 1014.01 1014.16 1014.51 1014.75 1015.14 1015.58 1015.66 1015.84 1016.34 1017.05 1017.35 1017.77 1018.15 1018.57 1018.86 1019.16 1019.45 1019.74 1020.09 1020.80 1021.48 1022.15 1022.33 1022.25 1022.43 1021.93 1021.57 1020.90 1020.19 1019.55 1019.05 1018.95 1018.47 1017.90
1008.39 1009.28 1010.20 1010.71 1011.68 1012.35 1012.81 1013.16 1013.33 1013.78 1014.35 1014.63 1014.59 1014.82 1015.19 1015.58 1015.86 1016.26 1016.74 1017.15 1017.59 1018.05 1018.46 1018.88 1019.07 1019.35 1019.57 1020.48 1021.00 1021.56 1022.05 1022.13 1022.07 1022.25 1022.04 1021.36 1020.44 1019.69 1019.46 1019.21 1018.78 1018.27 1017.90
Thickness
5834 5831 5827 5824 5823 5815 5809 5806 5801 5802 5800 5797 5797 5794 5792 5790 5788 5786 5784 5781 5777 5775 5773 5768 5765 5765 5763 5761 5762 5763 5761 5760 5748 5753 5755 5757 5755 5755 5751 5748 5744 5742 5736
5842 5837 5831 5819 5811 5807 5802 5799 5796 5792 5791 5789 5788 5785 5784 5782 5780 5778 5774 5770 5768 5764 5762 5759 5754 5756 5754 5754 5753 5752 5751 5751 5745 5740 5746 5750 5749 5749 5745 5738 5735 5731 5728
5840 5832 5825 5813 5806 5799 5794 5792 5791 5789 5786 5785 5783 5779 5775 5774 5771 5770 5767 5764 5760 5756 5750 5749 5746 5745 5743 5744 5744 5743 5743 5743 5741 5738 5737 5739 5736 5737 5734 5728 5721 5715 5710
5831 5821 5815 5808 5801 5793 5789 5788 5786 5784 5780 5778 5776 5772 5769 5766 5764 5761 5758 5754 5751 5749 5743 5741 5737 5735 5733 5733 5733 5732 5731 5732 5731 5728 5725 5721 5718 5717 5713 5704 5700 5697 5691
5822 5814 5807 5801 5793 5787 5783 5781 5779 5778 5776 5772 5767 5764 5761 5755 5749 5750 5746 5742 5740 5739 5739 5736 5730 5727 5724 5722 5722 5720 5720 5719 5714 5709 5704 5699 5694 5690 5686 5683 5681 5679 5677
5815 5806 5800 5792 5787 5784 5781 5777 5775 5772 5768 5765 5759 5755 5751 5745 5741 5739 5739 5735 5733 5729 5727 5726 5725 5719 5719 5716 5715 5713 5709 5703 5700 5695 5689 5683 5681 5678 5674 5671 5666 5664 5659
5806 5799 5791 5789 5786 5783 5779 5775 5770 5766 5762 5757 5751 5746 5741 5736 5733 5732 5733 5729 5724 5720 5718 5716 5714 5710 5707 5709 5710 5706 5699 5694 5690 5686 5681 5678 5674 5668 5664 5662 5657 5656 5654
5801 5796 5791 5788 5784 5780 5776 5772 5767 5762 5756 5750 5744 5739 5735 5728 5726 5726 5727 5724 5719 5712 5710 5706 5703 5699 5697 5697 5696 5693 5690 5683 5679 5675 5670 5664 5660 5658 5656 5654 5652 5649 5649
5799 5795 5790 5786 5781 5778 5773 5768 5762 5757 5751 5745 5739 5734 5728 5724 5722 5724 5723 5721 5713 5706 5701 5697 5694 5693 5690 5688 5684 5680 5678 5675 5670 5666 5661 5657 5652 5647 5643 5642 5638 5635 5633
5799 5794 5791 5785 5779 5774 5769 5764 5759 5753 5745 5738 5731 5726 5721 5719 5718 5718 5718 5716 5710 5702 5695 5690 5688 5685 5681 5679 5676 5672 5667 5665 5662 5660 5656 5652 5648 5640 5635 5632 5627 5622 5621
5799 5793 5787 5782 5777 5772 5766 5760 5752 5745 5737 5730 5724 5719 5715 5711 5708 5708 5707 5705 5700 5694 5688 5684 5682 5679 5674 5670 5668 5666 5662 5660 5658 5654 5649 5644 5640 5635 5627 5621 5616 5611 5607
5796 5790 5783 5778 5773 5766 5759 5753 5748 5743 5735 5727 5720 5714 5709 5705 5702 5698 5695 5693 5689 5685 5681 5679 5676 5672 5668 5664 5661 5659 5654 5653 5650 5644 5640 5635 5630 5624 5618 5611 5604 5598 5594
5793 5786 5780 5775 5769 5762 5755 5749 5744 5740 5735 5730 5725 5716 5705 5699 5696 5692 5687 5683 5681 5679 5675 5672 5669 5667 5663 5658 5655 5652 5648 5642 5635 5628 5622 5614 5611 5606 5602 5595 5593 5585 5579
5790 5784 5778 5771 5763 5759 5755 5751 5748 5743 5738 5733 5726 5715 5706 5700 5693 5689 5685 5680 5675 5671 5667 5667 5666 5663 5659 5652 5649 5643 5637 5631 5622 5613 5608 5603 5598 5589 5582 5576 5572 5567 5564
5790 5783 5776 5770 5763 5757 5747 5743 5739 5728 5725 5726 5716 5711 5701 5690 5683 5677 5671 5667 5662 5658 5657 5660 5659 5654 5648 5642 5635 5629 5623 5616 5606 5598 5590 5584 5578 5572 5566 5562 5558 5554 5550
5792 5785 5780 5770 5764 5758 5748 5738 5728 5721 5715 5711 5705 5702 5693 5686 5677 5672 5668 5663 5658 5653 5653 5650 5647 5642 5635 5630 5623 5616 5609 5601 5592 5583 5573 5567 5561 5555 5550 5548 5544 5539 5533
5797 5790 5782 5775 5766 5756 5746 5735 5726 5717 5711 5704 5697 5691 5686 5678 5670 5665 5662 5656 5655 5647 5646 5645 5639 5633 5626 5619 5610 5603 5595 5588 5579 5568 5560 5554 5547 5543 5538 5531 5525 5520 5517
5801 5791 5785 5780 5772 5760 5750 5740 5730 5718 5709 5699 5691 5685 5677 5670 5665 5661 5656 5653 5655 5646 5643 5639 5630 5624 5617 5610 5601 5594 5585 5576 5567 5557 5549 5541 5536 5531 5524 5518 5512 5508 5507
5803 5795 5790 5784 5776 5764 5756 5749 5743 5732 5721 5703 5691 5680 5675 5667 5659 5655 5649 5647 5649 5649 5641 5633 5626 5619 5611 5602 5592 5583 5575 5567 5558 5549 5540 5531 5524 5519 5513 5507 5504 5499 5498
5807 5797 5792 5785 5775 5765 5756 5749 5740 5732 5724 5709 5697 5687 5679 5667 5660 5655 5653 5648 5648 5644 5636 5628 5622 5614 5605 5596 5587 5576 5568 5559 5549 5541 5531 5524 5516 5508 5503 5499 5497 5496 5494
5806 5795 5790 5786 5775 5765 5755 5748 5743 5732 5721 5716 5708 5699 5684 5672 5667 5660 5653 5648 5645 5638 5631 5621 5613 5607 5598 5590 5579 5569 5561 5551 5540 5531 5522 5515 5509 5502 5496 5495 5492 5490 5489
5803 5794 5786 5781 5774 5760 5753 5746 5737 5731 5722 5714 5703 5686 5675 5672 5665 5658 5651 5644 5640 5633 5625 5617 5609 5603 5593 5582 5574 5563 5552 5538 5528 5518 5512 5508 5502 5497 5493 5489 5487 5486 5484
5800 5791 5781 5777 5772 5760 5751 5742 5736 5727 5720 5711 5698 5684 5675 5668 5662 5656 5650 5640 5631 5626 5619 5611 5605 5598 5587 5575 5566 5553 5539 5526 5517 5511 5505 5498 5494 5493 5488 5485 5483 5481 5480
5790 5783 5773 5762 5759 5750 5743 5738 5736 5725 5718 5707 5697 5686 5676 5671 5666 5657 5647 5639 5628 5621 5614 5606 5599 5592 5582 5570 5558 5545 5531 5520 5511 5505 5497 5493 5490 5487 5486 5482 5479 5477 5477
5790 5780 5772 5760 5747 5739 5734 5731 5726 5716 5710 5699 5692 5683 5675 5670 5663 5654 5643 5635 5626 5617 5609 5601 5593 5585 5577 5565 5552 5538 5525 5515 5506 5498 5493 5488 5486 5484 5483 5481 5475 5473 5472
5787 5778 5768 5759 5746 5736 5727 5718 5713 5708 5697 5691 5684 5679 5671 5662 5655 5646 5637 5628 5618 5610 5602 5592 5587 5580 5571 5558 5545 5534 5522 5511 5503 5496 5491 5486 5485 5485 5480 5474 5472 5470 5467